SES-17

Last updated on Fri Jun 19 2026 17:09:34 GMT+0000 (Coordinated Universal Time)

1 49332U 21095A 26169.59643572 -.00000278 00000+0 00000+0 0 9999 2 49332 0.0267 40.8266 0000811 45.0665 328.5524 1.00269036 17868
UTC large
Height (km)
Speed (km/s)
/
Latitude / Longitude
Inclination (degrees)
Orbital Period (minutes)
Azimuth
Elevation
Range (km)
Doppler Factor

Next 0 passes for location: London (51.5072 / 0.1276)

No passes found over London.
SES-17